SCP
5 4 4 4 3 3 3 3 2 1 1 1 1 1 1 0 1 1 1 1 1 0 0 0 0 0 0 1 1 1 1 1 1 1 1 1 2 2 2 1 1 1 1
4 3 3 3 3 3 3 2 2 1 1 1 1 1 1 1 1 1 1 0 0 0 0 0 0 0 0 0 0 1 1 1 1 1 1 1 2 2 2 1 1 1 1
3 3 2 2 3 3 2 2 1 1 1 1 1 1 1 1 1 1 1 0 0 0 0 0 0 0 0 0 0 0 1 1 1 0 0 0 1 2 2 1 1 1 0
2 2 2 2 2 2 1 1 1 1 1 1 1 1 1 1 1 1 1 0 0 0 0 0 0 0 0 0 0 0 0 0 0 0 0 0 1 1 1 1 0 0 0
1 2 1 1 1 1 1 0 0 0 0 1 1 1 1 1 1 0 0 0 0 0 0 0 0 0 0 0 0 0 0 0 0 0 0 0 0 1 1 1 0 0 0
1 1 1 1 0 0 0 0 0 0 1 1 1 1 1 0 0 0 0 0 0 0 0 0 0 0 0 0 0 0 0 0 0 0 0 0 0 1 1 1 0 0 0
0 0 0 0 0 0 0 0 0 0 1 1 1 1 0 0 0 0 0 0 0 0 0 0 0 0 0 0 0 0 0 0 0 0 0 0 0 1 1 1 1 1 1
0 0 0 0 0 0 0 0 0 0 1 1 1 0 0 0 0 0 0 0 0 0 0 0 0 0 0 0 0 0 0 0 0 0 0 0 0 0 1 1 1 1 1
0 0 0 0 0 0 0 0 0 0 0 0 0 0 0 0 0 0 0 0 0 0 0 0 0 0 0 0 0 0 0 0 0 0 0 0 0 0 0 1 1 1 0
0 0 0 0 0 0 0 0 0 0 0 0 0 0 0 0 0 0 0 0 0 0 0 0 0 0 0 0 0 0 0 0 0 0 0 0 0 0 0 0 0 0 0
0 0 0 0 0 0 0 0 0 0 0 0 0 0 0 0 0 0 0 0 0 0 0 0 0 0 0 0 0 0 0 0 0 0 0 0 0 0 0 0 0 0 0
0 0 0 0 0 0 0 0 0 0 0 0 0 0 0 0 0 0 0 0 0 0 0 0 0 0 0 0 0 0 0 0 0 0 0 0 0 0 0 0 0 0 0
0 0 0 0 0 0 0 0 0 0 0 0 0 0 0 0 0 0 0 0 0 0 0 0 0 0 0 0 0 0 0 0 0 0 0 0 0 0 0 0 0 0 0
0 0 0 0 0 0 0 0 0 0 0 0 0 0 0 0 0 0 0 0 0 0 0 0 0 0 0 0 0 0 0 0 0 0 0 0 0 0 0 0 0 0 0
0 0 0 0 0 0 0 0 0 0 0 0 0 0 0 0 0 0 0 0 0 0 0 0 0 0 0 0 0 0 0 0 0 0 0 0 0 0 0 0 0 0 0
0 0 0 0 0 0 0 0 0 0 0 0 0 0 0 0 0 0 0 0 0 0 0 0 0 0 0 0 0 0 0 0 0 0 0 0 0 0 0 0 0 0 0
0 0 0 0 0 0 0 0 0 0 0 0 0 0 0 0 0 0 0 0 0 0 0 0 0 0 0 0 0 0 0 0 0 0 0 0 0 0 0 0 0 0 0
1 0 0 0 0 0 0 0 0 0 0 0 0 0 0 0 0 0 0 0 0 0 0 0 0 0 0 0 0 0 0 0 0 0 0 0 0 0 0 0 0 0 0
1 0 0 0 0 0 0 0 0 0 0 0 0 0 0 0 0 0 0 0 0 0 0 0 0 0 0 0 0 0 0 0 0 0 0 0 0 0 0 0 0 0 0
1 0 0 0 0 0 0 0 0 0 0 0 0 0 0 0 0 0 0 0 0 0 0 0 0 0 0 0 0 0 0 0 0 0 0 0 0 0 0 0 0 0 0
0 0 0 0 0 0 0 0 0 0 0 0 0 0 0 0 0 0 0 0 0 0 0 0 0 0 0 0 0 0 0 0 0 0 0 0 0 0 0 0 0 0 0
0 0 0 0 0 0 0 0 0 0 0 0 0 0 0 0 0 0 0 0 1 0 0 0 0 0 0 0 0 0 0 0 0 0 0 0 0 0 0 0 0 0 0
0 0 0 0 0 0 0 0 0 0 0 0 0 0 0 0 0 0 0 1 1 1 0 0 0 0 0 0 0 0 0 0 0 0 0 0 0 0 0 0 0 0 0
0 0 0 0 0 0 0 0 0 0 0 0 0 0 0 0 0 0 0 1 1 1 0 0 0 0 0 0 0 0 0 0 0 0 0 0 0 0 0 0 0 0 0
0 0 0 0 0 0 0 0 0 0 0 0 0 0 0 0 0 0 0 0 0 0 0 0 0 0 0 0 0 0 0 0 0 0 0 0 0 0 0 0 0 0 0
0 0 0 0 0 0 0 0 0 0 0 0 0 0 0 0 0 0 0 0 0 0 0 0 0 0 0 0 0 0 0 0 0 0 0 0 0 0 0 0 0 0 0
Wind_Speed
4 4 4 3 2 2 1 1 0 1 1 2 2 2 3 3 3 3 3 3 2 2 3 3 3 3 3 2 3 4 4 4 3 1 1 2 2 3 3 2 3 3 4
4 4 4 3 2 1 1 1 1 1 1 1 2 2 3 3 3 3 3 3 2 2 3 3 3 2 2 3 2 3 3 2 3 3 2 2 2 3 3 3 2 2 3
4 4 4 3 2 1 1 1 1 1 1 2 2 2 3 3 3 3 3 3 2 3 2 3 3 3 3 2 3 2 2 2 2 3 2 2 2 2 3 3 3 2 2
4 4 3 2 2 2 1 1 1 1 1 2 2 2 3 3 3 3 3 2 2 2 2 2 2 2 2 2 2 2 2 2 3 3 3 3 3 3 3 3 3 3 2
3 3 3 3 3 2 1 1 1 1 1 2 2 2 2 2 4 4 3 2 2 2 2 2 2 3 4 3 2 2 2 2 3 3 3 3 3 4 3 3 3 3 2
3 3 3 3 2 2 1 1 2 2 2 2 2 2 2 3 6 6 5 2 2 2 2 2 1 0 1 0 1 3 3 2 2 2 3 3 4 4 3 3 3 4 3
3 3 3 3 2 2 1 1 2 1 1 1 2 2 3 4 4 5 6 3 1 2 2 2 1 2 1 1 2 2 1 1 1 2 3 3 4 3 3 4 3 2 1
3 3 3 2 2 2 1 1 1 1 1 1 1 2 2 4 3 4 6 2 1 2 2 2 2 2 3 2 2 2 2 2 0 2 2 2 2 2 3 2 2 3 2
3 3 2 2 2 2 2 1 1 1 1 1 2 2 2 3 3 4 6 0 1 2 2 3 3 3 5 4 1 3 4 3 4 5 4 3 3 1 1 2 3 4 3
3 3 3 2 2 2 2 1 1 1 0 1 2 2 2 3 3 4 6 1 1 1 2 2 4 4 4 5 1 2 3 3 3 4 4 3 4 4 4 4 3 2 2
3 3 3 3 2 2 2 1 1 1 1 1 1 1 2 2 2 2 5 3 1 1 1 2 4 4 3 4 3 1 2 1 3 3 4 4 4 4 5 4 2 2 2
4 4 4 3 2 2 2 1 1 0 1 1 1 1 1 1 2 2 3 4 5 2 2 2 3 2 2 2 1 2 1 3 2 2 2 3 3 3 3 2 2 2 3
4 4 3 3 2 2 1 1 1 1 1 0 0 1 1 1 3 2 0 2 4 2 3 4 2 1 2 2 3 2 4 3 1 1 1 1 1 1 2 3 4 4 5
4 3 3 3 2 2 1 1 0 1 1 1 1 0 0 1 1 1 1 1 2 1 0 1 4 5 4 1 4 4 3 1 1 1 1 1 2 3 4 3 3 3 3
3 3 2 2 2 1 0 1 2 2 2 3 3 2 1 1 3 4 3 2 3 3 3 2 2 2 3 3 2 2 2 3 3 3 2 3 3 3 3 3 3 3 4
3 3 2 2 2 1 1 1 1 1 0 2 3 5 2 1 1 1 2 3 4 5 5 3 2 2 2 2 2 2 3 2 2 3 3 3 3 3 3 3 4 4 4
3 2 1 1 2 1 1 1 0 2 4 4 4 4 4 3 3 3 4 5 6 5 5 3 2 3 3 3 2 2 2 1 2 3 3 3 3 3 3 3 4 4 4
3 3 2 2 1 1 1 2 2 1 1 2 5 6 6 6 6 6 5 5 6 6 5 4 3 3 3 3 3 2 2 2 3 3 3 4 4 4 4 4 4 4 4
3 2 2 1 2 1 2 2 2 2 2 1 1 4 6 6 8 8 7 6 5 4 4 4 4 4 3 3 3 3 3 3 4 4 4 5 4 4 4 5 5 4 5
3 3 2 2 2 1 2 2 1 2 2 2 2 1 2 4 4 5 6 5 5 4 4 4 3 4 4 4 4 4 4 4 5 5 5 5 5 5 6 7 6 6 6
4 5 6 4 3 2 2 2 2 3 3 2 2 0 2 4 4 4 4 5 5 5 5 5 5 5 5 5 5 5 6 5 5 6 5 5 6 6 6 7 7 7 7
3 3 4 4 3 3 3 3 3 3 3 4 3 3 5 6 5 4 4 4 4 4 5 5 5 5 5 5 5 6 6 6 6 6 6 6 6 7 7 7 7 7 8
5 4 4 4 4 3 5 4 4 4 4 4 4 4 4 5 5 5 5 4 5 5 5 5 6 7 6 5 5 6 7 6 6 6 7 7 7 7 7 8 9 10 9
4 4 4 4 4 4 4 5 5 5 5 4 5 5 5 5 6 6 6 5 5 6 6 6 6 8 9 8 7 7 6 6 7 7 9 9 9 9 9 9 10 11 10
4 4 4 4 5 5 5 5 5 5 5 5 5 6 6 6 6 6 6 6 7 7 8 8 7 8 9 10 10 8 4 3 5 7 8 9 11 11 11 11 10 11 11
5 5 5 4 4 5 5 5 5 6 5 5 5 6 6 6 6 6 6 6 7 7 7 8 9 10 11 10 9 7 4 5 6 7 8 10 11 11 11 11 13 12 12
Wind_Direction
156 153 152 150 158 171 176 170 64 10 1 353 346 339 330 326 324 312 311 305 297 299 293 283 276 276 269 259 252 256 258 254 243 203 137 142 167 178 158 153 150 166 139
150 154 149 150 158 167 148 123 81 35 7 17 352 337 330 338 332 322 319 315 313 308 304 302 304 291 276 272 263 256 255 249 231 202 179 168 169 172 163 162 151 150 133
142 148 145 150 145 136 119 109 100 64 28 16 357 340 341 345 336 329 325 323 322 322 318 311 308 299 281 280 274 262 249 236 221 194 181 170 165 161 163 154 144 144 149
146 140 142 145 132 123 103 95 81 63 39 9 358 352 349 351 351 343 339 344 334 329 333 328 313 304 293 274 267 262 242 220 201 186 178 174 166 165 178 168 163 166 166
146 142 134 125 118 114 104 86 68 52 40 15 1 4 4 1 5 354 339 343 341 343 350 352 8 13 7 332 307 287 234 213 198 180 176 177 167 176 185 186 167 158 157
148 135 115 115 120 117 104 93 76 58 38 11 3 19 17 25 22 356 330 332 352 0 359 359 38 104 100 121 356 349 332 251 208 195 183 174 173 181 176 180 178 178 163
143 133 123 128 133 118 103 94 76 63 39 4 10 28 35 44 19 351 333 325 16 24 10 347 4 44 298 124 149 165 91 26 290 246 177 175 175 179 182 186 193 204 126
145 136 131 132 132 124 129 106 80 62 33 2 17 31 37 52 24 348 324 313 43 49 21 0 18 19 15 358 106 106 101 91 117 193 155 174 159 168 202 195 157 152 155
140 132 125 134 141 149 125 97 68 35 15 8 41 35 37 53 26 342 317 6 71 63 42 27 18 47 25 344 102 110 108 102 76 69 64 85 85 80 300 214 189 192 176
138 135 125 123 126 121 109 102 79 80 46 25 56 36 37 40 39 349 321 295 71 75 82 79 57 40 21 345 29 110 118 119 124 131 133 152 168 173 215 245 238 221 189
144 137 130 128 127 124 125 139 140 133 60 36 64 77 65 49 72 14 344 332 358 4 50 67 69 49 10 346 327 53 80 120 151 157 159 167 174 180 193 203 243 282 291
148 141 137 139 143 135 139 148 152 163 185 163 128 128 113 104 58 52 6 353 332 342 16 43 72 51 357 321 347 78 222 249 191 167 170 179 188 182 173 191 213 261 284
146 133 134 140 145 152 167 173 187 212 246 182 209 156 125 117 119 139 173 336 336 339 25 38 23 289 241 191 173 215 234 227 195 185 182 184 184 165 201 207 212 217 233
146 140 145 152 154 141 198 211 257 296 303 292 283 311 122 127 69 105 148 170 196 223 297 167 213 239 247 212 190 208 229 272 286 249 229 212 202 199 214 220 221 223 233
154 154 166 161 132 142 154 18 336 360 358 315 326 327 329 353 48 22 333 334 335 4 320 262 243 224 216 203 190 192 209 202 214 230 230 226 220 221 218 218 235 248 254
159 158 159 144 132 168 159 133 102 265 209 247 281 298 328 24 46 341 316 306 309 311 291 263 258 265 264 249 227 206 207 216 225 229 231 238 242 238 232 227 233 244 254
163 154 172 155 151 188 224 244 227 186 202 220 231 247 258 281 283 272 267 271 266 263 261 263 264 264 267 265 259 260 255 240 254 252 250 250 247 250 249 247 249 254 258
169 162 202 183 190 209 242 266 268 279 234 179 195 208 222 237 246 249 246 250 236 225 246 254 255 260 263 269 271 272 259 247 249 255 255 253 253 255 256 259 258 263 273
185 180 194 215 221 223 247 255 263 273 280 277 197 176 200 220 225 232 230 246 258 251 244 246 250 256 261 261 264 259 258 262 267 271 266 263 259 260 263 267 269 260 264
185 162 218 244 236 222 243 263 270 265 266 270 266 262 186 219 232 211 215 241 260 267 267 263 259 263 262 258 254 253 250 250 251 253 257 258 258 257 259 262 267 268 265
195 172 185 223 237 251 255 260 266 267 268 266 266 35 300 272 269 264 253 245 254 269 273 271 265 256 251 249 252 251 253 256 254 257 262 262 262 261 260 260 261 264 269
215 214 210 222 228 235 262 273 277 277 274 268 264 208 202 252 269 272 270 264 259 256 260 266 270 269 267 265 260 255 255 255 257 258 263 263 261 261 262 261 262 265 267
220 222 224 230 237 230 241 250 259 267 272 271 271 268 248 259 269 271 274 274 266 263 263 258 262 268 269 265 266 268 269 268 268 271 271 268 267 268 267 265 265 266 267
221 226 231 235 242 251 255 258 261 267 273 276 278 275 273 272 274 278 280 276 272 270 265 263 264 269 272 271 266 262 264 273 278 273 270 271 269 268 269 269 269 269 270
224 228 239 244 250 257 263 266 271 275 278 280 281 282 282 281 278 273 271 271 270 269 271 272 270 267 269 271 271 273 279 266 265 278 273 268 268 268 270 271 271 273 272
227 232 239 243 250 257 263 267 271 274 273 275 278 277 280 282 283 284 280 277 277 274 272 272 271 272 274 271 272 274 258 243 244 249 264 267 268 269 271 271 273 273 273